Location: Willingham
(52.3167°N, 0.0667°E)
Time: 20:30:30
(UTC+00:00)

Terra - Pass Details

Date: 19 May 2025
Orbit: 690 x 691 km, 98.0° (Epoch: 21 June)

Event Time Altitude Azimuth Distance (km) Brightness Sun altitude
Exits shadow 20:50:11 - 171° (S) 2,720 4.4 -7.2°
Reaches altitude 10° 20:51:37 10° 173° (S) 2,140 3.8 -7.3°
Maximum altitude 20:56:18 69° 257° (WSW) 742 2.1 -7.8°
Drops below altitude 10° 21:01:00 10° 342° (NNW) 2,156 5.6 -8.3°
Sets 21:03:17 0° 344° (NNW) 3,078 6.5 -8.5°
